DRAGON CRS-22

Last updated on Wed Jul 07 2021 00:02:13 GMT+0000 (Coordinated Universal Time)

1 48831U 21048A 21187.46697458 .00000431 00000-0 16068-4 0 9990 2 48831 51.6441 247.3821 0002094 139.8380 359.0994 15.48767607291586

Satellite not in orbit

DRAGON CRS-22